Weather Roundup
Issued by NWS Chicago, IL

Home | Current Version | Previous Version | Graphics & Text | Print | Product List | Glossary On
Versions: 1 2 3 4 5 6 7 8 9 10 11 12 13 14 15 16 17 18 19 20 21 22 23 24 25 26 27 28 29 30 31 32 33 34 35 36 37 38 39 40 41 42 43 44 45 46 47 48 49 50
000
NZUS59 KLOT 121010
HRRLOT

CHICAGO AREA WEATHER ROUNDUP
NATIONAL WEATHER SERVICE CHICAGO/ROMEOVILLE IL
500 AM CDT SAT JUL 12 2014

NOTE: "FAIR" INDICATES FEW OR NO CLOUDS BELOW 12,000 FEET WITH NO
SIGNIFICANT WEATHER AND/OR OBSTRUCTIONS TO VISIBILITY.

* THESE STATIONS ARE NOT UNDER NWS QUALITY CONTROL. THEY ALSO MAY NOT
  REPORT WEATHER SUCH AS PRECIPITATION OR FOG.

ILZ005-006-012>014-019>023-121100-
NORTHEAST ILLINOIS

CITY           SKY/WX    TMP DP  RH WIND       PRES   REMARKS
OHARE          MOCLDY    73  59  61 S8        30.03F
MIDWAY         MOCLDY    76  61  59 S7        30.04F
AURORA         LGT RAIN  71  63  75 SE3       30.04F
LANSING*       MOCLDY    71  60  66 S7        30.06F
JOLIET*        CLOUDY    71  60  67 SE5       30.04F
WAUKEGAN       CLOUDY    72  59  63 S9        30.03F
DUPAGE AIRPORT CLOUDY    72  61  68 SE8       30.03F
WHEELING       CLOUDY    73  61  65 S7        30.05F
KANKAKEE*      RAIN      69  64  83 SE3       30.07S
MORRIS*        PTCLDY    72  65  78 S8        30.03S
LEWIS AIRPORT* HVY RAIN  68  62  82 S7        30.05S
NORTHERLY IS     N/A     73  59  61 S6          N/A
$$

WIZ051-052-058>065-066-070>072-121100-
SOUTHEAST WISCONSIN

CITY           SKY/WX    TMP DP  RH WIND       PRES   REMARKS
MILWAUKEE      CLOUDY    71  59  65 S7        30.03F
KENOSHA*       CLOUDY    70  61  73 SW5       30.04F
RACINE*        MOCLDY    70  60  70 SE3       30.05F
BURLINGTON     MOCLDY    66  60  81 CALM      30.04S
WAUKESHA       CLOUDY    66  59  77 S5        30.04F
WEST BEND      CLOUDY    64  55  72 CALM      30.03F
$$

INZ001>003-010>013-019-020-121100-
NORTHWEST INDIANA

CITY           SKY/WX    TMP DP  RH WIND       PRES   REMARKS
GARY*          MOCLDY    72  61  68 SE5       30.07F
MICHIGAN CITY* NOT AVBL
RENSSELAER*    NOT AVBL
VALPARAISO     PTCLDY    68  61  78 SE6       30.09F
$$

LMZ740>746-121100-
SOUTHERN LAKE MICHIGAN

STATION/POSITION TIME  SKY/WX   TEMP WIND        PRES    VSBY
                                AIR  DIR/SP/G
                 (UTC)          (F)  (DEG/KT/KT) (MB)    (MI)
HARRISON CRIB    1000            73  170/ 17/ 17   N/A
BURNHAM HARBOR   1000            73  170/  3/  8   N/A
CALUMET HARBOR   1000            74  170/  5/ 10 1018.4F
BURNS HARBOR     NOT AVBL
MICHIGAN CITY    1000            73  140/ 11/ 15   N/A
$$

ABBREVIATIONS USED IN REMARKS
   TC - TEMPERATURE IN CELSIUS
  WCI - WIND CHILL INDEX
   HX - HEAT INDEX
  VSB - VISIBILITY
$$



USA.gov is the U.S. government's official web portal to all federal, state and local government web resources and services.